FW7499 Weather Reports


Display with metric or nautical units.
time (UTC)temp
F
wind
direction
speed
MPH
gust
MPH
rain 1hr
in
rain 24hr
in
rain mn
in
humidity
%
barometer
mb
20260831225512 85 196 0.0 2.0 0.00 0.00 0.00 70 1013.4
20260831225012 86 196 0.0 2.0 0.00 0.00 0.00 65 1013.4
20260831224508 86 196 0.0 2.0 0.00 0.00 0.00 67 1013.6
20260831224014 87 173 0.0 2.0 0.00 0.00 0.00 66 1013.4
20260831223512 88 170 0.0 2.0 0.00 0.00 0.00 66 1013.5
20260831223010 88 177 0.0 2.0 0.00 0.00 0.00 64 1013.5
20260831222508 87 188 0.0 2.0 0.00 0.00 0.00 64 1013.5
20260831222012 88 186 0.0 3.0 0.00 0.00 0.00 62 1013.5
20260831221535 88 286 1.0 2.0 0.00 0.00 0.00 61 1013.5
20260831221007 88 202 0.0 2.0 0.00 0.00 0.00 63 1013.5
20260831220509 87 180 0.0 2.0 0.00 0.00 0.00 64 1013.5
20260831220015 87 281 0.0 2.0 0.00 0.00 0.00 65 1013.6
20260831215511 87 38 0.0 2.0 0.00 0.00 0.00 69 1013.5
20260831215010 87 83 1.0 2.0 0.00 0.00 0.00 62 1013.5
20260831214539 88 255 0.0 2.0 0.00 0.00 0.00 62 1013.6
20260831214012 89 298 0.0 3.0 0.00 0.00 0.00 66 1013.6
20260831213514 89 153 1.0 3.0 0.00 0.00 0.00 62 1013.7
20260831213017 89 334 0.0 5.0 0.00 0.00 0.00 60 1013.8
20260831212510 89 313 0.0 6.0 0.00 0.00 0.00 64 1013.8
20260831212014 89 277 2.0 6.0 0.00 0.00 0.00 61 1013.7
20260831211514 88 188 0.0 4.0 0.00 0.00 0.00 63 1013.7
20260831211017 89 317 1.0 4.0 0.00 0.00 0.00 1013.7
20260831210516 89 352 2.0 4.0 0.00 0.00 0.00 62 1013.8
20260831210012 90 350 1.0 6.0 0.00 0.00 0.00 62 1013.8
20260831205511 89 249 3.0 6.0 0.00 0.00 0.00 64 1013.7
20260831205016 88 252 2.0 4.0 0.00 0.00 0.00 60 1013.7
20260831204516 89 314 2.0 4.0 0.00 0.00 0.00 61 1013.8
20260831204013 89 337 1.0 4.0 0.00 0.00 0.00 62 1013.8
20260831203518 89 342 1.0 4.0 0.00 0.00 0.00 59 1013.9
20260831203024 89 315 1.0 4.0 0.00 0.00 0.00 62 1014.0
20260831202514 88 268 1.0 4.0 0.00 0.00 0.00 61 1014.0
20260831202012 89 267 0.0 4.0 0.00 0.00 0.00 63 1014.0
20260831201534 89 180 1.0 8.0 0.00 0.00 0.00 61 1014.0
20260831201015 88 265 2.0 8.0 0.00 0.00 0.00 61 1014.1
20260831200507 89 297 1.0 4.0 0.00 0.00 0.00 60 1014.1
20260831200036 89 252 1.0 4.0 0.00 0.00 0.00 60 1014.0
20260831195512 89 254 2.0 5.0 0.00 0.00 0.00 59 1014.0
20260831195017 89 259 2.0 7.0 0.00 0.00 0.00 58 1014.0
20260831194514 90 325 1.0 6.0 0.00 0.00 0.00 60 1014.0
20260831194013 89 143 0.0 3.0 0.00 0.00 0.00 62 1014.1
20260831193510 89 331 1.0 3.0 0.00 0.00 0.00 61 1014.1
20260831193022 89 248 1.0 3.0 0.00 0.00 0.00 60 1014.0
20260831192514 89 242 1.0 5.0 0.00 0.00 0.00 62 1014.0
20260831192014 89 263 0.0 6.0 0.00 0.00 0.00 60 1013.9
20260831191528 89 257 2.0 6.0 0.00 0.00 0.00 59 1013.9
20260831191015 90 295 1.0 3.0 0.00 0.00 0.00 60 1013.9
20260831190515 90 337 1.0 2.0 0.00 0.00 0.00 62 1013.9
20260831190024 87 247 1.0 2.0 0.00 0.00 0.00 62 1013.9
20260831185516 87 360 1.0 2.0 0.00 0.00 0.00 62 1013.9
20260831185013 88 291 1.0 4.0 0.00 0.00 0.00 62 1014.0
20260831184521 88 167 0.0 4.0 0.00 0.00 0.00 63 1014.0
20260831184016 88 312 1.0 3.0 0.00 0.00 0.00 61 1014.0
20260831183511 89 321 1.0 3.0 0.00 0.00 0.00 60 1013.9
20260831183030 88 257 1.0 3.0 0.00 0.00 0.00 64 1013.9
20260831182515 89 19 2.0 3.0 0.00 0.00 0.00 61 1013.9
20260831182014 89 85 1.0 4.0 0.00 0.00 0.00 58 1013.9
20260831181524 89 351 1.0 4.0 0.00 0.00 0.00 60 1014.0
20260831181013 89 350 2.0 4.0 0.00 0.00 0.00 61 1013.9
20260831180509 89 330 1.0 3.0 0.00 0.00 0.00 63 1013.9
20260831180031 88 352 0.0 2.0 0.00 0.00 0.00 64 1014.0
20260831175513 87 9 0.0 3.0 0.00 0.00 0.00 61 1013.9
20260831175014 88 9 1.0 4.0 0.00 0.00 0.00 65 1014.0
20260831174529 86 23 1.0 4.0 0.00 0.00 0.00 63 1014.0
20260831174014 86 294 1.0 3.0 0.00 0.00 0.00 65 1014.0
20260831173515 84 170 1.0 3.0 0.00 0.00 0.00 66 1014.0
20260831173034 85 343 0.0 3.0 0.00 0.00 0.00 70 1013.9
20260831172517 85 350 1.0 3.0 0.00 0.00 0.00 66 1014.0
20260831172005 84 344 1.0 4.0 0.00 0.00 0.00 69 1014.0
20260831171508 85 5 2.0 4.0 0.00 0.00 0.00 66 1013.9
20260831171007 84 9 1.0 3.0 0.00 0.00 0.00 65 1013.9
20260831170503 85 15 1.0 3.0 0.00 0.00 0.00 67 1013.9
20260831170006 83 334 0.0 3.0 0.00 0.00 0.00 67 1013.8
20260831165504 85 14 1.0 4.0 0.00 0.00 0.00 67 1013.8
20260831165003 84 338 1.0 4.0 0.00 0.00 0.00 66 1013.8
20260831164507 85 360 2.0 4.0 0.00 0.00 0.00 66 1013.8
20260831164007 85 352 1.0 4.0 0.00 0.00 0.00 69 1013.7
20260831163508 84 344 2.0 4.0 0.00 0.00 0.00 68 1013.7
20260831163033 83 350 1.0 3.0 0.00 0.00 0.00 68 1013.7
20260831162502 82 331 1.0 3.0 0.00 0.00 0.00 69 1013.7
20260831162007 81 322 1.0 2.0 0.00 0.00 0.00 70 1013.7
20260831161514 81 360 2.0 3.0 0.00 0.00 0.00 69 1013.6
20260831161003 82 333 1.0 3.0 0.00 0.00 0.00 69 1013.5
20260831160507 82 316 1.0 4.0 0.00 0.00 0.00 70 1013.4
20260831160013 82 313 1.0 4.0 0.00 0.00 0.00 69 1013.4
20260831155515 82 328 1.0 4.0 0.00 0.00 0.00 71 1013.2
20260831155003 81 308 1.0 3.0 0.00 0.00 0.00 71 1013.0
20260831154521 81 321 0.0 4.0 0.00 0.00 0.00 72 1013.0
20260831154007 82 324 2.0 4.0 0.00 0.00 0.00 70 1013.0
20260831153505 82 360 1.0 4.0 0.00 0.00 0.00 71 1012.8
20260831153004 82 336 0.0 4.0 0.00 0.00 0.00 70 1013.0
20260831152512 81 325 1.0 4.0 0.00 0.00 0.00 73 1013.1
20260831152008 80 321 1.0 3.0 0.00 0.00 0.00 75 1013.1
20260831151521 79 360 1.0 2.0 0.00 0.00 0.00 78 1012.9
20260831151005 78 360 1.0 2.0 0.00 0.00 0.00 78 1013.0
20260831150508 78 360 0.0 2.0 0.00 0.00 0.00 79 1013.0
20260831150027 78 360 0.0 3.0 0.00 0.00 0.00 79 1013.0
20260831145505 78 360 1.0 3.0 0.00 0.00 0.00 80 1013.1
20260831145003 78 342 1.0 2.0 0.00 0.00 0.00 80 1013.2
20260831144524 77 88 0.0 2.0 0.00 0.00 0.00 81 1012.8
20260831144008 77 88 0.0 2.0 0.00 0.00 0.00 81 1012.6
20260831143506 77 342 1.0 2.0 0.00 0.00 0.00 80 1012.6
20260831143007 77 327 0.0 2.0 0.00 0.00 0.00 83 1012.7
20260831142506 77 327 0.0 2.0 0.00 0.00 0.00 81 1012.7
20260831142006 77 327 0.0 2.0 0.00 0.00 0.00 82 1012.6
20260831141514 77 327 0.0 2.0 0.00 0.00 0.00 81 1013.0
20260831141004 76 327 1.0 2.0 0.00 0.00 0.00 81 1012.8
20260831140511 76 300 0.0 2.0 0.00 0.00 0.00 80 1012.7
20260831140022 76 9 0.0 3.0 0.00 0.00 0.00 81 1012.4
20260831135505 76 313 0.0 3.0 0.00 0.00 0.00 82 1012.6
20260831135003 76 360 1.0 3.0 0.00 0.00 0.00 81 1012.1
20260831134506 76 274 0.0 3.0 0.00 0.00 0.00 81 1012.0
20260831134003 76 329 1.0 5.0 0.00 0.00 0.00 81 1012.6
20260831133503 76 327 2.0 5.0 0.00 0.00 0.00 81 1012.8
20260831133004 76 343 1.0 3.0 0.00 0.00 0.00 81 1013.0
20260831132507 76 344 1.0 4.0 0.00 0.00 0.00 82 1012.8
20260831132008 76 246 2.0 4.0 0.00 0.00 0.00 81 1012.8
20260831131506 76 34 2.0 4.0 0.00 0.00 0.00 83 1012.9
20260831131008 76 338 0.0 3.0 0.00 0.00 0.00 84 1012.7
20260831130507 76 338 0.0 3.0 0.00 0.00 0.00 83 1012.8
20260831130004 76 360 1.0 3.0 0.00 0.00 0.00 83 1012.7
20260831125504 76 185 1.0 3.0 0.00 0.00 0.00 82 1012.8
20260831125004 76 240 1.0 4.0 0.00 0.00 0.00 83 1012.7
20260831124518 76 259 1.0 4.0 0.00 0.00 0.00 84 1012.8
20260831124003 76 296 0.0 2.0 0.00 0.00 0.00 85 1012.7
20260831123503 75 295 0.0 2.0 0.00 0.00 0.00 86 1012.6
20260831123005 75 286 0.0 2.0 0.00 0.00 0.00 87 1012.2
20260831122505 75 286 0.0 2.0 0.00 0.00 0.00 87 1012.3
20260831122003 74 286 0.0 2.0 0.00 0.00 0.00 88 1012.3
20260831121509 74 286 0.0 1.0 0.00 0.00 0.00 90 1012.1
20260831121008 73 286 0.0 2.0 0.00 0.00 0.00 90 1011.9
20260831120505 74 286 0.0 2.0 0.00 0.00 0.00 90 1011.7
20260831120009 73 286 1.0 2.0 0.00 0.00 0.00 90 1011.7
20260831115506 73 257 0.0 2.0 0.00 0.00 0.00 91 1011.8
20260831115011 73 257 0.0 2.0 0.00 0.00 0.00 91 1011.5
20260831114508 73 257 0.0 1.0 0.00 0.00 0.00 91 1011.2
20260831114006 73 257 0.0 1.0 0.00 0.00 0.00 91 1011.4
20260831113514 73 258 0.0 2.0 0.00 0.00 0.00 90 1011.2
20260831113012 73 257 0.0 2.0 0.00 0.00 0.00 90 1011.2
20260831112506 74 258 0.0 2.0 0.00 0.00 0.00 90 1011.0
20260831112003 74 257 0.0 2.0 0.00 0.00 0.00 90 1011.0
20260831111513 74 257 0.0 2.0 0.00 0.00 0.00 90 1010.9
20260831111003 74 258 0.0 0.0 0.00 0.00 0.00 90 1010.8
20260831110506 74 257 0.0 0.0 0.00 0.00 0.00 90 1010.8
20260831110006 74 257 0.0 0.0 0.00 0.00 0.00 90 1010.8
20260831105510 74 258 0.0 0.0 0.00 0.00 0.00 89 1010.8
20260831105006 74 257 0.0 2.0 0.00 0.00 0.00 89 1010.9
20260831104522 74 257 0.0 2.0 0.00 0.00 0.00 89 1010.8
20260831104010 74 257 0.0 2.0 0.00 0.00 0.00 90 1010.8
20260831103505 74 258 0.0 2.0 0.00 0.00 0.00 89 1010.8
20260831103017 74 257 0.0 2.0 0.00 0.00 0.00 89 1010.8
20260831102511 74 257 0.0 0.0 0.00 0.00 0.00 90 1010.7
20260831102005 74 257 0.0 1.0 0.00 0.00 0.00 90 1010.7
20260831101507 74 258 0.0 2.0 0.00 0.00 0.00 90 1010.7
20260831101006 74 258 0.0 2.0 0.00 0.00 0.00 90 1010.5
20260831100504 74 258 0.0 0.0 0.00 0.00 0.00 90 1010.6
20260831100006 74 257 0.0 0.0 0.00 0.00 0.00 90 1010.6
20260831095503 74 257 0.0 0.0 0.00 0.00 0.00 90 1010.4
20260831095011 74 258 0.0 0.0 0.00 0.00 0.00 90 1010.4
20260831094516 73 257 0.0 0.0 0.00 0.00 0.00 91 1010.5
20260831094004 74 257 0.0 2.0 0.00 0.00 0.00 90 1010.3
20260831093511 74 258 0.0 2.0 0.00 0.00 0.00 90 1010.2
20260831093013 74 257 0.0 2.0 0.00 0.00 0.00 90 1010.1
20260831092513 74 258 0.0 2.0 0.00 0.00 0.00 90 1010.1
20260831092007 74 258 0.0 2.0 0.00 0.00 0.00 90 1010.1
20260831091507 74 258 0.0 0.0 0.00 0.00 0.00 90 1010.1
20260831091016 74 258 0.0 0.0 0.00 0.00 0.00 89 1010.1
20260831090508 74 257 0.0 0.0 0.00 0.00 0.00 89 1010.1
20260831090009 74 258 0.0 0.0 0.00 0.00 0.00 89 1010.1
20260831085509 74 257 0.0 0.0 0.00 0.00 0.00 89 1010.0
20260831085010 74 257 0.0 0.0 0.00 0.00 0.00 89 1010.0
20260831084518 75 257 0.0 2.0 0.00 0.00 0.00 88 1009.9
20260831084011 75 257 0.0 2.0 0.00 0.00 0.00 87 1009.9
20260831083507 75 257 0.0 2.0 0.00 0.00 0.00 88 1009.8
20260831083008 75 257 0.0 2.0 0.00 0.00 0.00 88 1009.7
20260831082513 75 257 0.0 1.0 0.00 0.00 0.00 88 1009.7
20260831082013 75 257 0.0 0.0 0.00 0.00 0.00 88 1009.7
20260831081524 75 258 0.0 2.0 0.00 0.00 0.00 88 1009.6
20260831081013 75 257 0.0 2.0 0.00 0.00 0.00 88 1009.6
20260831080512 75 257 0.0 0.0 0.00 0.00 0.00 88 1009.8
20260831080033 75 258 0.0 0.0 0.00 0.00 0.00 87 1009.7
20260831075507 76 257 0.0 0.0 0.00 0.00 0.00 86 1009.7
20260831075012 76 257 0.0 2.0 0.00 0.00 0.00 86 1009.7
20260831074510 76 258 0.0 2.0 0.00 0.00 0.00 86 1009.5
20260831074007 76 257 0.0 2.0 0.00 0.00 0.00 87 1009.6
20260831073508 76 352 0.0 1.0 0.00 0.00 0.00 87 1009.7
20260831073015 76 352 0.0 1.0 0.00 0.00 0.00 87 1009.8
20260831072516 76 352 0.0 1.0 0.00 0.00 0.00 87 1009.9
20260831072006 76 352 0.0 2.0 0.00 0.00 0.00 87 1009.9
20260831071544 76 352 0.0 2.0 0.00 0.00 0.00 87 1009.9
20260831071014 76 352 0.0 0.0 0.00 0.00 0.00 87 1009.8
20260831070512 76 352 0.0 0.0 0.00 0.00 0.00 87 1009.9
20260831070015 76 352 0.0 0.0 0.00 0.00 0.00 86 1009.9
20260831065514 76 352 0.0 0.0 0.00 0.00 0.00 86 1010.0
20260831065010 76 352 0.0 0.0 0.00 0.00 0.00 87 1010.0
20260831064532 76 352 0.0 0.0 0.00 0.00 0.00 87 1010.0
20260831064010 76 352 0.0 0.0 0.00 0.00 0.00 87 1010.0
20260831063510 76 352 0.0 0.0 0.00 0.00 0.00 86 1010.0
20260831063006 76 352 0.0 0.0 0.00 0.00 0.00 86 1010.0
20260831062508 77 352 0.0 0.0 0.00 0.00 0.00 86 1010.0
20260831062008 77 352 0.0 0.0 0.00 0.00 0.00 85 1010.0
20260831061504 77 352 0.0 2.0 0.00 0.00 0.00 85 1010.0
20260831061010 77 352 0.0 2.0 0.00 0.00 0.00 84 1009.8
20260831060505 77 352 0.0 2.0 0.00 0.00 0.00 84 1009.8
20260831060026 78 352 0.0 2.0 0.00 0.00 0.00 84 1009.8
20260831055507 78 352 0.0 1.0 0.00 0.00 0.00 84 1009.7
20260831055003 78 352 0.0 2.0 0.00 0.00 0.00 84 1009.8
20260831054507 78 352 0.0 2.0 0.00 0.00 0.00 84 1009.7
20260831054011 77 352 0.0 2.0 0.00 0.00 0.00 84 1009.6
20260831053506 77 352 1.0 2.0 0.00 0.00 0.00 85 1009.6
20260831053024 77 352 0.0 2.0 0.00 0.00 0.00 84 1009.6
20260831052507 77 352 0.0 2.0 0.00 0.00 0.00 84 1009.6
20260831052008 77 352 0.0 2.0 0.00 0.00 0.00 85 1009.4
20260831051515 77 352 0.0 3.0 0.00 0.00 0.00 85 1009.4
20260831051013 77 352 2.0 3.0 0.00 0.00 0.00 84 1009.4
20260831050512 78 286 0.0 2.0 0.00 0.00 0.00 83 1009.3
20260831050023 78 286 0.0 1.0 0.00 0.00 0.00 83 1009.3
20260831045514 78 286 0.0 0.0 0.00 0.00 0.00 83 1009.3
20260831045012 78 286 0.0 0.0 0.00 0.00 0.00 83 1009.3
20260831044509 78 286 0.0 0.0 0.00 0.00 0.00 82 1009.3
20260831044008 78 286 0.0 0.0 0.00 0.00 0.00 83 1009.3
20260831043504 78 286 0.0 0.0 0.00 0.00 0.00 83 1009.3
20260831043010 78 286 0.0 0.0 0.00 0.00 0.00 83 1009.3
20260831042509 78 286 0.0 0.0 0.00 0.00 0.00 83 1009.4
20260831042008 78 286 0.0 0.0 0.00 0.00 0.00 83 1009.3
20260831041513 78 286 0.0 0.0 0.00 0.00 0.00 83 1009.4
20260831041007 78 286 0.0 0.0 0.00 0.00 0.00 83 1009.4
20260831040509 78 286 0.0 0.0 0.00 0.00 0.00 82 1009.4
20260831040026 78 286 0.0 0.0 0.00 0.00 0.00 82 1009.5
20260831035515 78 286 0.0 0.0 0.00 0.00 0.00 82 1009.5
20260831035009 78 286 0.0 2.0 0.00 0.00 0.00 82 1009.6
20260831034523 78 286 0.0 2.0 0.00 0.00 0.00 81 1009.6
20260831034009 79 286 0.0 2.0 0.00 0.00 0.00 81 1009.7
20260831033517 79 286 0.0 2.0 0.00 0.00 0.00 80 1009.7
20260831033017 79 286 0.0 0.0 0.00 0.00 0.00 79 1009.7
20260831032510 79 286 0.0 0.0 0.00 0.00 0.00 79 1009.6
20260831032008 80 286 0.0 0.0 0.00 0.00 0.00 79 1009.6
20260831031513 80 286 0.0 0.0 0.00 0.00 0.00 78 1009.7
20260831031011 79 286 0.0 0.0 0.00 0.00 0.00 79 1009.8
20260831030513 79 286 0.0 0.0 0.00 0.00 0.00 79 1009.8
20260831030016 80 286 0.0 0.0 0.00 0.00 0.00 79 1009.9
20260831025510 80 286 0.0 0.0 0.00 0.00 0.00 79 1009.9
20260831025012 80 286 0.0 0.0 0.00 0.00 0.00 78 1009.9
20260831024515 80 286 0.0 0.0 0.00 0.00 0.00 77 1009.8
20260831024011 81 286 0.0 0.0 0.00 0.00 0.00 76 1009.8
20260831023513 81 286 0.0 0.0 0.00 0.00 0.00 77 1009.7
20260831023027 81 286 0.0 0.0 0.00 0.00 0.00 77 1009.7
20260831022515 81 286 0.0 0.0 0.00 0.00 0.00 76 1009.6
20260831022011 81 286 0.0 0.0 0.00 0.00 0.00 77 1009.6
20260831021529 81 286 0.0 0.0 0.00 0.00 0.00 76 1009.6
20260831021012 81 286 0.0 0.0 0.00 0.00 0.00 77 1009.5
20260831020510 81 286 0.0 0.0 0.00 0.00 0.00 77 1009.5
20260831020022 81 286 0.0 0.0 0.00 0.00 0.00 76 1009.5
20260831015512 81 286 0.0 0.0 0.00 0.00 0.00 76 1009.4
20260831015013 82 286 0.0 0.0 0.00 0.00 0.00 75 1009.3
20260831014525 82 286 0.0 0.0 0.00 0.00 0.00 73 1009.3
20260831014011 82 286 0.0 0.0 0.00 0.00 0.00 73 1009.1
20260831013514 83 286 0.0 0.0 0.00 0.00 0.00 72 1009.1
20260831013023 83 286 0.0 0.0 0.00 0.00 0.00 72 1009.2
20260831012509 83 286 0.0 0.0 0.00 0.00 0.00 72 1009.1
20260831012017 83 286 0.0 0.0 0.00 0.00 0.00 71 1009.1
20260831011526 83 286 0.0 0.0 0.00 0.00 0.00 71 1009.1
20260831011018 84 286 0.0 0.0 0.00 0.00 0.00 71 1009.1
20260831010517 84 286 0.0 0.0 0.00 0.00 0.00 71 1009.1
20260831010018 84 286 0.0 0.0 0.00 0.00 0.00 71 1009.0
20260831005513 84 286 0.0 0.0 0.00 0.00 0.00 70 1009.0
20260831005015 84 286 0.0 0.0 0.00 0.00 0.00 70 1008.9
20260831004518 84 286 0.0 0.0 0.00 0.00 0.00 69 1009.0
20260831004018 84 286 0.0 0.0 0.00 0.00 0.00 69 1009.0
20260831003509 85 286 0.0 0.0 0.00 0.00 0.00 69 1009.0
20260831003034 85 286 0.0 0.0 0.00 0.00 0.00 68 1009.0
20260831002514 86 286 0.0 0.0 0.00 0.00 0.00 67 1009.0
20260831002011 86 286 0.0 0.0 0.00 0.00 0.00 66 1009.0
20260831001521 86 286 0.0 2.0 0.00 0.00 0.00 65 1009.0
20260831001015 86 286 0.0 2.0 0.00 0.00 0.00 65 1009.0
20260831000518 87 298 0.0 2.0 0.00 0.00 0.00 64 1009.0
20260831000034 87 298 0.0 2.0 0.00 0.00 0.00 63 1009.0
20260830235513 88 306 1.0 2.0 0.00 0.00 0.00 64 1009.0
20260830235014 88 277 0.0 2.0 0.00 0.00 0.00 61 1009.0
20260830234527 88 277 0.0 4.0 0.00 0.00 0.00 62 1009.0
20260830234011 89 242 1.0 4.0 0.00 0.00 0.00 60 1009.0
20260830233514 89 165 0.0 2.0 0.00 0.00 0.00 62 1009.0
20260830233024 89 156 0.0 2.0 0.00 0.00 0.00 61 1008.9
20260830232511 90 157 0.0 2.0 0.00 0.00 0.00 60 1008.9
20260830232014 90 156 0.0 2.0 0.00 0.00 0.00 59 1008.9
20260830231524 91 323 1.0 2.0 0.00 0.00 0.00 56 1008.9
20260830231009 91 185 0.0 3.0 0.00 0.00 0.00 57 1008.8
20260830230512 91 241 1.0 3.0 0.00 0.00 0.00 58 1008.8
20260830230008 91 182 1.0 4.0 0.00 0.00 0.00 58 1008.7